COSMOS 2251 DEB, 33896

Orbit data source: Space-Track

COSMOS 2251 DEB, 33896 is space debris in LEO originally from a launch on Wed, 16 Jun 1993 UTC launched from the Plesetsk Missile And Space Complex (PKMTR). The debris from Iridium 33, an American commercial communications satellite, has been tracked extensively since its accidental collision with the defunct Russian satellite Cosmos 2251 in 2009. This event, occurring at high speed in low Earth orbit (LEO), generated thousands of pieces of space debris, significantly increasing the risk of further collisions. The Iridium 33 debris cloud has impacted space traffic management and orbital debris mitigation strategies, making it a subject of ongoing study in space situational awareness.

Loading next visibility...
Identifier
33896, 1993-036CZ
Orbit
LEO
Country
Flag of CISCIS
Related business
Manufacturer
Unknown
Mission
Spacecraft
Bus & Motor
Unknown
Mass
Unknown
Launch date (UTC)
1993-06-16 (32 years ago)
Launch vehicle
Unknown
Launch site
Plesetsk Missile And Space Complex (PKMTR)
Object type
Payload
Rocket body
Debris
Shape & HBR
Unknown shape, 0.1 m
Radar Cross Section
Small (<0.1 m²)

Expand to show TLE details & history
Last TLE update: 5 hours ago

TLE from 5 hours ago
0 COSMOS 2251 DEB
1 33896U 93036CZ  25289.20125162  .00001855  00000-0  83868-3 0  9990
2 33896  73.7660 261.1135 0123684  86.5026 293.5387 14.18778716859245
Epoch: 2025-10-16T04:49Z
TLE epoch observation values (Epoch: 2025-10-16T04:49:48.139Z)
Latitude
17.9596°
Longitude
169.0853°
Altitude
796.825 km
Speed
7.475 km/s
True Right ascension
17h 46m 00s
True Declination
17° 51' 34"
Sunlit
Object was in daylight at epoch
Visualization orbit readout
Latitude
Unknown
Longitude
Unknown
Altitude
Unknown
Speed
Unknown
Apparent Right ascension
Unknown
Apparent Declination
Unknown
Sunlit
N/A
Visualization observer readout
Local Sidereal Time
04:23:01
Azimuth
Unknown
Elevation
Unknown
Doppler factor
Unknown
Orbital elements
Apogee altitude
916.27 km
Perigee altitude
738.034 km
Semi-major axis
7,205.289 km
Eccentricity
0.01237
Inclination
73.766°
RAAN
261.1135°
Arg. of periapsis
86.5026°
True anomaly
292.23136°
Mean anomaly
293.5387°
Eccentric anomaly
292.88583°
Mean motion
3.54867 °/min
Orbital period
101.45 mins
BSTAR
0.00083868
Loading maneuver chart data...
Computing Atmospheric mass density...

Documentation

Showing up to 5 results
|